• Processing (Info)

  • MPEC 2010-X89 : 2010 XT45

    The following Minor Planet Electronic Circular may be linked-to from your own Web pages, but must not otherwise be redistributed electronically.

    A form allowing access to any MPEC is at the bottom of this page.


    Read MPEC 2010-X88 Read MPEC 2010-X90


    M.P.E.C. 2010-X89                                Issued 2010 Dec. 11, 02:23 UT
    
         The Minor Planet Electronic Circulars contain information on unusual
             minor planets and routine data on comets.  They are published
       on behalf of Commission 20 of the International Astronomical Union by the
              Minor Planet Center, Smithsonian Astrophysical Observatory,
                              Cambridge, MA 02138, U.S.A.
    
                 Prepared using the Tamkin Foundation Computer Network
    
                                  MPC@CFA.HARVARD.EDU
           URL http://www.minorplanetcenter.org/iau/mpc.html  ISSN 1523-6714
    
                                       2010 XT45
    
    Observations:
         K10X45T* C2010 12 09.27444 05 40 05.40 +00 24 43.0          19.6  cEX089704
         K10X45T  C2010 12 09.28797 05 40 04.15 +00 24 39.0          20.1  cEX089704
         K10X45T  C2010 12 09.30126 05 40 02.89 +00 24 34.4          20.1  cEX089704
         K10X45T  C2010 12 09.31486 05 40 01.54 +00 24 28.9          19.8  cEX089704
         K10X45T  C2010 12 09.32822 05 40 00.31 +00 24 24.3          20.0  cEX089704
         K10X45T KC2010 12 10.03070 05 38 55.52 +00 20 16.4          19.3 RvEX089204
         K10X45T KC2010 12 10.04044 05 38 54.58 +00 20 13.6                vEX089204
         K10X45T KC2010 12 10.05097 05 38 53.59 +00 20 09.2                vEX089204
         K10X45T  C2010 12 10.53543 05 38 09.32 +00 17 28.3          19.2 RoEX089300
         K10X45T  C2010 12 10.53684 05 38 09.16 +00 17 28.0          19.6 RoEX089300
         K10X45T  C2010 12 10.53967 05 38 08.93 +00 17 26.4          19.3 RoEX089300
         K10X45T  C2010 12 10.56176 05 38 06.81 +00 17 19.3          19.1 RoEX089300
         K10X45T  C2010 12 10.56352 05 38 06.52 +00 17 19.0          19.6 RoEX089300
         K10X45T  C2010 12 10.56528 05 38 06.39 +00 17 18.8          19.4 RoEX089300
         K10X45T  C2010 12 10.94510 05 37 31.24 +00 15 12.5          19.3 RcEX089A24
         K10X45T  C2010 12 10.94904 05 37 30.90 +00 15 11.4          18.2 RcEX089A24
         K10X45T  C2010 12 10.96859 05 37 29.02 +00 15 05.2          19.1 RcEX089A24
         K10X45T  C2010 12 10.97225 05 37 28.65 +00 15 03.8          19.1 RcEX089A24
         K10X45T  C2010 12 10.97518 05 37 28.39 +00 15 03.0          19.2 RcEX089A24
    
    Observer details:
    204 Schiaparelli Observatory.  Observer L. Buzzi.  0.60-m f/4.64 reflector
        + CCD.
    300 Bisei Spaceguard Center--BATTeRS.  Observers A. Asami, T. Sakamoto.  1.0-m
        f/3.0 reflector + CCD.
    704 Lincoln Laboratory ETS, New Mexico.  Observers M. Blythe, G. Spitz,
        R. Brungard, J. Paige, P. Festler.  1.0-m f/2.15 reflector + CCD.
    A24 New Millennium Observatory, Mozzate.  Observer E. Cozzi.  0.36-m f/7.6
        Schmidt-Cassegrain + CCD.
    
    Orbital elements:
    2010 XT45                                                Earth MOID = 0.2873 AU
    Epoch 2011 Feb. 8.0 TT = JDT 2455600.5                  MPC
    M 156.27270              (2000.0)            P               Q
    n   0.48083227     Peri.   90.19044     +0.38643695     +0.91752824
    a   1.6136412      Node   203.24762     -0.91218651     +0.36516933
    e   0.2836988      Incl.   13.75556     -0.13631672     +0.15745887
    P   2.05           H   17.3           G   0.15           U   9
    Residuals in seconds of arc
    101209 704  0.3-  0.5-    101210 204  0.2+  0.7-    101210 A24  0.0   0.2-
    101209 704  0.3+  0.4+    101210 300  0.5+  0.3+    101210 A24  0.5+  0.1-
    101209 704  0.3+  0.5+    101210 300  0.1+  0.4+    101210 A24  0.1+  0.0
    101209 704  0.5-  0.1-    101210 300  0.6+  0.2-    101210 A24  0.2-  0.2-
    101209 704  0.1+  0.1+    101210 300  0.3+  0.0     101210 A24  0.1+  0.0
    101210 204  0.4+  0.5-    101210 300  1.6-  0.3+
    101210 204  0.1+  0.1+    101210 300  1.0-  0.6+
    
    Ephemeris:
    2010 XT45                a,e,i = 1.61, 0.28, 14                  q = 1.1559
    Date    TT    R. A. (2000) Decl.     Delta      r     Elong.  Phase     V
    2010 11 11    06 14 03.3 +05 03 44   1.0754  1.8861   131.8    23.0    19.9
    ...
    2010 11 26    05 59 06.9 +02 12 45   1.0210  1.9238   146.7    16.4    19.6
    ...
    2010 12 04    05 48 02.9 +01 01 09   1.0109  1.9421   153.2    13.2    19.5
    ...
    2010 12 10    05 38 58.5 +00 20 34   1.0135  1.9551   156.1    11.8    19.5
    2010 12 11    05 37 26.1 +00 15 01   1.0148  1.9572   156.4    11.6    19.5
    2010 12 12    05 35 53.7 +00 09 51   1.0163  1.9593   156.6    11.5    19.5
    ...
    2010 12 18    05 26 43.9 -00 13 26   1.0310  1.9714   156.1    11.7    19.6
    ...
    2010 12 26    05 15 18.2 -00 23 46   1.0643  1.9865   151.9    13.5    19.7
    ...
    2011 01 10    04 58 55.2 +00 13 58   1.1656  2.0115   138.6    18.8    20.1
    
    Carl W. Hergenrother         (C) Copyright 2010 MPC           M.P.E.C. 2010-X89
    

    Read MPEC 2010-X88 Read MPEC 2010-X90


    MPEC number:

    Enter an MPEC number in one of the following forms:

    • 1997-B01 (the full form)
    • J97B01 (the packed version of the full form)
    • B01 (the abbreviated form)